Location: Presov
(49.0000°N, 21.2500°E)
Time: 06:14:07
(UTC+02:00)

Transit 2A Rocket - Pass Details

Date: 19 April 2021
Orbit: 594 x 909 km, 66.7° (Epoch: 07 May)

Event Time Altitude Azimuth Distance (km) Brightness Sun altitude
Rises 22:08:22 0° 329° (NNW) 2,848 9.5 -21.6°
Reaches altitude 10° 22:11:37 10° 355° (N) 1,962 7.9 -21.9°
Maximum altitude 22:13:59 14° 28° (NNE) 1,726 7.1 -22.1°
Drops below altitude 10° 22:16:23 10° 61° (ENE) 2,012 7.1 -22.4°
Enters shadow 22:16:38 - 63° (ENE) 2,064 7.1 -22.4°
Sets 22:19:47 0° 86° (E) 2,974 - -22.7°
